User: anonymous   Login
Location: Gipe Farm
(40.9466°N, 95.5370°W)
Time: 23:17:24
(UTC-05:00)
Language:

Cosmos 1842 - Orbit

View from above orbital plane
View from above orbital plane
View from above satellite
View from above satellite

Ground track
Ground track

The orbit data is extracted from the following two-line orbital elements,

1 17911U 87038A   17146.56215122 +.00000093 +00000-0 +37008-5 0  9993
2 17911 082.5233 214.7129 0010699 328.1695 031.8887 15.11251703638243
Epoch (UTC): 26 May 2017 13:29:29
Eccentricity: 0.0010699
inclination: 82.5233°
perigee height: 525 km
apogee height: 540 km
right ascension of ascending node: 214.7129°
argument of perigee: 328.1695°
revolutions per day: 15.11251703
mean anomaly at epoch: 31.8887°
orbit number at epoch: 63824

The dashed part of the orbit path shows where the satellite is in the earth's shadow,  

DLR